Starlink 31426

operational
NORAD ID: 59249 Int'l Des: 2024-049 Owner: SPXS Country: US Constellation: starlink
LEOCIRCULAR

关于 Starlink 31426

正在加载描述...

实时位置

正在加载3D地球...

即将过境

高度历史

Altitude vs Time

uPlot chart will show altitude changes over time

两行轨道根数

1 59249U 24049U 25349.14454463 -.00000065 00000-0 71515-5 0 9998
2 59249 43.0022 261.1994 0000943 309.5975 50.4793 15.27581080 99461
Epoch: Dec 15, 2025 • Age: 24 hours

当前状态

高度 483.3 km
速度 7.63 km/s
星下点 22.47°N, 90.37°W
发射日期 Mar 16, 2024
运行时间 1.7 years
类型 internet

技术详情

分类 Payload
质量 730.00 kg
干质量 700.00 kg
总质量 730.00 kg
长度 0.30 m
直径 4.10 m
跨度 29.00 m
形状 Box + pan
制造商 SPXS
平台类型 Starlink V2M
阶段状态 In Orbit
所有者/国家 SPXS/US

大型星座

Loading constellations...